| time (UTC) | temp F | wind direction | speed knots | gust knots | rain 1hr in | rain 24hr in | rain mn in | humidity % | barometer mb |
| 20260508120728 | 50 | 293 | 12.2 | 18.2 | 0.00 | 0.00 | 0.00 | 38 | 1025.8 |
| 20260508112728 | 49 | 284 | 9.6 | 14.8 | 0.00 | 0.00 | 0.00 | 40 | 1025.8 |
| 20260508110728 | 49 | 296 | 11.3 | 16.5 | 0.00 | 0.00 | 0.00 | 41 | 1025.7 |
| 20260508104728 | 49 | 275 | 8.7 | 13.0 | 0.00 | 0.00 | 0.00 | 44 | 1025.6 |
| 20260508102727 | 49 | 280 | 9.6 | 13.9 | 0.00 | 0.00 | 0.00 | 49 | 1025.4 |
| 20260508100727 | 49 | 271 | 8.7 | 12.2 | 0.00 | 0.00 | 0.00 | 50 | 1025.3 |
| 20260508094727 | 49 | 294 | 7.8 | 12.2 | 0.00 | 0.00 | 0.00 | 53 | 1025.2 |
| 20260508092727 | 48 | 295 | 7.8 | 12.2 | 0.00 | 0.00 | 0.00 | 53 | 1025.1 |
| 20260508090727 | 49 | 295 | 7.8 | 13.9 | 0.00 | 0.00 | 0.00 | 54 | 1025.0 |
| 20260508084727 | 48 | 311 | 7.8 | 12.2 | 0.00 | 0.00 | 0.00 | 53 | 1024.8 |
| 20260508082727 | 47 | 284 | 7.0 | 9.6 | 0.00 | 0.00 | 0.00 | 55 | 1024.7 |
| 20260508080727 | 47 | 283 | 7.0 | 11.3 | 0.00 | 0.00 | 0.00 | 58 | 1024.5 |
| 20260508074727 | 47 | 298 | 7.8 | 11.3 | 0.00 | 0.00 | 0.00 | 57 | 1024.2 |
| 20260508072727 | 47 | 297 | 7.0 | 10.4 | 0.00 | 0.00 | 0.00 | 57 | 1024.0 |
| 20260508070727 | 46 | 275 | 7.0 | 10.4 | 0.00 | 0.00 | 0.00 | 61 | 1023.7 |
| 20260508064727 | 46 | 311 | 6.1 | 10.4 | 0.00 | 0.00 | 0.00 | 60 | 1023.5 |
| 20260508062726 | 45 | 311 | 6.1 | 9.6 | 0.00 | 0.00 | 0.00 | 58 | 1023.3 |
| 20260508060727 | 46 | 301 | 7.0 | 10.4 | 0.00 | 0.00 | 0.00 | 59 | 1023.1 |
| 20260508054727 | 44 | 318 | 5.2 | 8.7 | 0.00 | 0.00 | 0.00 | 65 | 1022.9 |
| 20260508052727 | 43 | 320 | 5.2 | 8.7 | 0.00 | 0.00 | 0.00 | 70 | 1022.6 |
| 20260508050726 | 43 | 299 | 4.3 | 7.0 | 0.00 | 0.00 | 0.00 | 77 | 1022.4 |
| 20260508044727 | 41 | 292 | 4.3 | 7.0 | 0.00 | 0.00 | 0.00 | 83 | 1022.3 |
| 20260508042726 | 40 | 286 | 4.3 | 7.0 | 0.00 | 0.00 | 0.00 | 89 | 1022.1 |
| 20260508040726 | 39 | 270 | 3.5 | 5.2 | 0.00 | 0.00 | 0.00 | 93 | 1021.9 |
| 20260508034726 | 38 | 257 | 4.3 | 7.0 | 0.00 | 0.00 | 0.00 | 94 | 1021.8 |
| 20260508032726 | 37 | 265 | 3.5 | 5.2 | 0.00 | 0.00 | 0.00 | 94 | 1021.6 |
| 20260508030726 | 37 | 268 | 5.2 | 7.8 | 0.00 | 0.00 | 0.00 | 95 | 1021.4 |
| 20260508024726 | 36 | 253 | 4.3 | 7.0 | 0.00 | 0.00 | 0.00 | 95 | 1021.3 |
| 20260508022726 | 35 | 270 | 4.3 | 7.0 | 0.00 | 0.00 | 0.00 | 94 | 1021.1 |
| 20260508020726 | 34 | 275 | 4.3 | 7.8 | 0.00 | 0.00 | 0.00 | 93 | 1020.9 |
| 20260508014726 | 35 | 252 | 5.2 | 8.7 | 0.00 | 0.00 | 0.00 | 94 | 1020.6 |
| 20260508012726 | 34 | 258 | 4.3 | 7.8 | 0.00 | 0.00 | 0.00 | 93 | 1020.5 |
| 20260508010726 | 35 | 256 | 5.2 | 7.0 | 0.00 | 0.00 | 0.00 | 91 | 1020.4 |
| 20260508004725 | 34 | 250 | 5.2 | 7.8 | 0.00 | 0.00 | 0.00 | 90 | 1020.2 |
| 20260508002726 | 34 | 235 | 5.2 | 7.0 | 0.00 | 0.00 | 0.00 | 88 | 1020.1 |
| 20260508000725 | 33 | 250 | 5.2 | 7.0 | 0.00 | 0.00 | 0.00 | 90 | 1020.1 |
| 20260507234725 | 32 | 257 | 3.5 | 5.2 | 0.00 | 0.00 | 0.00 | 88 | 1020.0 |
| 20260507232726 | 34 | 301 | 2.6 | 3.5 | 0.00 | 0.00 | 0.00 | 87 | 1019.9 |
| 20260507230725 | 34 | 254 | 3.5 | 5.2 | 0.00 | 0.00 | 0.00 | 88 | 1019.5 |
| 20260507224725 | 34 | 251 | 4.3 | 6.1 | 0.00 | 0.00 | 0.00 | 90 | 1019.4 |
| 20260507222725 | 33 | 261 | 1.7 | 3.5 | 0.00 | 0.00 | 0.00 | 87 | 1019.1 |
| 20260507220725 | 33 | 219 | 1.7 | 2.6 | 0.00 | 0.00 | 0.00 | 88 | 1019.1 |
| 20260507214725 | 34 | 350 | 0.9 | 1.7 | 0.00 | 0.00 | 0.00 | 90 | 1018.8 |
| 20260507212725 | 33 | 184 | 2.6 | 3.5 | 0.00 | 0.00 | 0.00 | 88 | 1018.6 |
| 20260507210725 | 33 | 203 | 1.7 | 2.6 | 0.00 | 0.00 | 0.00 | 90 | 1018.4 |
| 20260507204725 | 36 | 325 | 1.7 | 1.7 | 0.00 | 0.00 | 0.00 | 81 | 1018.0 |
| 20260507202725 | 35 | 319 | 0.9 | 1.7 | 0.00 | 0.00 | 0.00 | 79 | 1018.1 |
| 20260507200725 | 36 | 311 | 1.7 | 2.6 | 0.00 | 0.00 | 0.00 | 79 | 1017.9 |
| 20260507194725 | 37 | 302 | 1.7 | 1.7 | 0.00 | 0.00 | 0.00 | 79 | 1017.8 |
| 20260507192724 | 39 | 305 | 2.6 | 3.5 | 0.00 | 0.00 | 0.00 | 75 | 1017.6 |
| 20260507190724 | 40 | 339 | 2.6 | 3.5 | 0.00 | 0.00 | 0.00 | 72 | 1017.5 |
| 20260507184725 | 41 | 329 | 6.1 | 7.0 | 0.00 | 0.00 | 0.00 | 69 | 1017.4 |
| 20260507182724 | 41 | 329 | 5.2 | 6.1 | 0.00 | 0.00 | 0.00 | 69 | 1017.3 |
| 20260507180724 | 42 | 1 | 5.2 | 7.8 | 0.00 | 0.00 | 0.00 | 69 | 1017.1 |
| 20260507174724 | 43 | 359 | 4.3 | 7.0 | 0.00 | 0.00 | 0.00 | 68 | 1017.0 |
| 20260507172724 | 43 | 356 | 5.2 | 7.0 | 0.00 | 0.00 | 0.00 | 69 | 1016.9 |
| 20260507170724 | 42 | 18 | 6.1 | 8.7 | 0.00 | 0.00 | 0.00 | 73 | 1016.7 |
| 20260507164724 | 44 | 301 | 6.1 | 7.8 | 0.00 | 0.00 | 0.00 | 50 | 1016.5 |
| 20260507162724 | 44 | 303 | 7.8 | 9.6 | 0.00 | 0.00 | 0.00 | 51 | 1016.5 |
| 20260507160724 | 44 | 288 | 6.1 | 8.7 | 0.00 | 0.00 | 0.00 | 54 | 1016.4 |
| 20260507154724 | 45 | 283 | 5.2 | 8.7 | 0.00 | 0.00 | 0.00 | 52 | 1016.4 |
| 20260507152723 | 45 | 284 | 7.8 | 11.3 | 0.00 | 0.00 | 0.00 | 47 | 1016.5 |
| 20260507150724 | 45 | 286 | 5.2 | 8.7 | 0.00 | 0.00 | 0.00 | 60 | 1016.5 |
| 20260507144723 | 45 | 288 | 5.2 | 9.6 | 0.00 | 0.00 | 0.00 | 57 | 1016.5 |
| 20260507142723 | 45 | 291 | 7.0 | 11.3 | 0.00 | 0.00 | 0.00 | 59 | 1016.5 |
| 20260507140723 | 45 | 298 | 10.4 | 13.9 | 0.00 | 0.00 | 0.00 | 60 | 1016.5 |
| 20260507134724 | 44 | 289 | 11.3 | 14.8 | 0.00 | 0.00 | 0.00 | 64 | 1016.4 |
| 20260507132723 | 44 | 296 | 13.9 | 19.1 | 0.00 | 0.00 | 0.00 | 63 | 1016.2 |
| 20260507124723 | 45 | 288 | 13.9 | 22.6 | 0.00 | 0.00 | 0.00 | 63 | 1016.0 |
| 20260507122723 | 46 | 293 | 13.0 | 17.4 | 0.00 | 0.00 | 0.00 | 57 | 1015.7 |